Location: Liscomb Game Sanctuary
(45.1633°N, 62.5575°W)
Time: 17:46:06
(UTC-03:00)

EO 1 Del DPAF - Pass Details

Date: 22 February 2018
Orbit: 522 x 526 km, 98.1° (Epoch: 23 June)

Event Time Altitude Azimuth Distance (km) Brightness Sun altitude
Rises 18:56:53 0° 11° (N) 2,675 6.7 -12.9°
Reaches altitude 10° 18:59:01 10° 10° (N) 1,779 5.8 -13.2°
Maximum altitude 19:02:50 74° 286° (WNW) 552 3.4 -13.9°
Drops below altitude 10° 19:06:37 10° 201° (SSW) 1,760 6.2 -14.6°
Sets 19:08:42 0° 199° (SSW) 2,642 7.0 -15.0°
